LUSAT (LO-19)

Last updated on Sun Jun 21 2026 00:03:19 GMT+0000 (Coordinated Universal Time)

1 20442U 90005G 26171.32155512 .00000068 00000+0 41169-4 0 9995 2 20442 98.8848 193.2136 0011289 191.6338 168.4586 14.34123955902844
UTC large
Height (km)
Speed (km/s)
/
Latitude / Longitude
Inclination (degrees)
Orbital Period (minutes)
Azimuth
Elevation
Range (km)
Doppler Factor

Next 0 passes for location: London (51.5072 / 0.1276)

No passes found over London.
LUSAT (LO-19)